Juist Airport


Codes: EDWJ/JUI
Name: Juist Airport
City: Juist
Country: Germany
Elevation: 7 ft.

Photos at Juist Airport


   Photos courtesy of SpottingLog. You can add your own sightings and photos by signing up for a free trial today.



No photos found.

Weather at Juist Airport


Time (UTC)DescriptionTempratureWindCloud coverageVisibilityPressureHumidity
16-Jun-2024 00:00Overcast Clouds13°C25 mph, SW85%10000m1004hPa89%
16-Jun-2024 03:00Overcast Clouds13°C22 mph, S86%10000m1004hPa87%
16-Jun-2024 06:00Light Rain13°C22 mph, S76%10000m1005hPa87%
16-Jun-2024 09:00Light Rain14°C20 mph, SW66%10000m1005hPa78%
16-Jun-2024 12:00Light Rain15°C16 mph, SW82%10000m1005hPa79%
16-Jun-2024 15:00Light Rain15°C18 mph, SW95%8772m1005hPa82%
16-Jun-2024 18:00Light Rain15°C18 mph, SW82%9286m1006hPa84%
16-Jun-2024 21:00Light Rain14°C16 mph, SW5%10000m1007hPa84%
17-Jun-2024 00:00Clear Sky14°C16 mph, SW3%10000m1008hPa86%
17-Jun-2024 03:00Few Clouds13°C18 mph, SW15%10000m1009hPa86%
17-Jun-2024 06:00Scattered Clouds13°C18 mph, S25%10000m1010hPa86%
17-Jun-2024 09:00Overcast Clouds15°C18 mph, SW100%10000m1010hPa79%
17-Jun-2024 12:00Light Rain16°C13 mph, SW91%10000m1011hPa77%
17-Jun-2024 15:00Light Rain16°C13 mph, W13%10000m1012hPa81%
17-Jun-2024 18:00Clear Sky15°C11 mph, W9%10000m1012hPa80%
17-Jun-2024 21:00Clear Sky15°C11 mph, SW0%10000m1013hPa79%
18-Jun-2024 00:00Few Clouds14°C13 mph, SW16%10000m1014hPa80%
18-Jun-2024 03:00Broken Clouds14°C13 mph, SW83%10000m1014hPa83%
18-Jun-2024 06:00Scattered Clouds14°C11 mph, SW50%10000m1014hPa84%
18-Jun-2024 09:00Scattered Clouds15°C11 mph, SW49%10000m1015hPa83%
18-Jun-2024 12:00Light Rain15°C9 mph, NW56%10000m1016hPa87%
18-Jun-2024 15:00Broken Clouds15°C11 mph, NW71%10000m1016hPa73%
18-Jun-2024 18:00Overcast Clouds14°C13 mph, NW85%10000m1016hPa77%
18-Jun-2024 21:00Overcast Clouds14°C16 mph, NW95%10000m1017hPa82%
19-Jun-2024 00:00Broken Clouds14°C18 mph, NW63%10000m1018hPa81%
19-Jun-2024 03:00Light Rain14°C18 mph, NW28%10000m1018hPa84%
19-Jun-2024 06:00Scattered Clouds14°C16 mph, NW27%10000m1020hPa77%
19-Jun-2024 09:00Light Rain14°C18 mph, NW100%10000m1022hPa75%
19-Jun-2024 12:00Overcast Clouds14°C16 mph, NW87%10000m1023hPa70%
19-Jun-2024 15:00Scattered Clouds14°C13 mph, NW48%10000m1023hPa71%
19-Jun-2024 18:00Broken Clouds14°C9 mph, W73%10000m1023hPa69%
19-Jun-2024 21:00Overcast Clouds14°C9 mph, W100%10000m1022hPa65%
20-Jun-2024 00:00Broken Clouds14°C4 mph, SW68%10000m1021hPa66%
20-Jun-2024 03:00Clear Sky13°C4 mph, S3%10000m1019hPa67%
20-Jun-2024 06:00Clear Sky13°C9 mph, SE8%10000m1018hPa68%
20-Jun-2024 09:00Broken Clouds15°C7 mph, E60%10000m1017hPa60%
20-Jun-2024 12:00Scattered Clouds16°C13 mph, E47%10000m1014hPa66%
20-Jun-2024 15:00Broken Clouds17°C16 mph, E55%10000m1012hPa76%
20-Jun-2024 18:00Broken Clouds17°C18 mph, NE73%10000m1008hPa80%
20-Jun-2024 21:00Light Rain16°C18 mph, NE89%10000m1007hPa85%